Weather History for Okeechobee, FL

Change the Weather History Date:

Tuesday, May 7, 2013

  Actual Average Record
Temperature  
Mean Temperature 65 °F -  
Max Temperature 80 °F 86 °F 94 °F (1989)
Min Temperature 50 °F 65 °F 50 °F (2013)
Growing Degree Days 15 (Base 50)    
Moisture  
Dew Point 54 °F    
Average Humidity 68    
Maximum Humidity 100    
Minimum Humidity 39    
Precipitation  
Precipitation 0.00 in - - ()
Sea Level Pressure  
Sea Level Pressure 30.03 in    
Wind  
Wind Speed 4 mph (West)    
Max Wind Speed 17 mph    
Max Gust Speed 29 mph    
Visibility 10 miles    
Events      
Averages and records for this station are not official NWS values.
T = Trace of Precipitation, MM = Missing Value Source: NWS Daily Summary

Daily Weather History Graph

Daily Weather History Graph

Search for Another Location

Airport:

Trip Planner

Search our weather history database for the weather conditions in past years. The results will help you decide how hot, cold, wet, or windy it might be!

Date:

Astronomy

May. 07, 2013 Rise Set
Actual Time 6:39 AM EDT 8:00 PM EDT
Civil Twilight 6:14 AM EDT 8:25 PM EDT
Nautical Twilight 5:45 AM EDT 8:54 PM EDT
Astronomical Twilight 5:14 AM EDT 9:25 PM EDT
Moon 5:01 AM EDT (5/7) 6:07 PM EDT (5/7)
Length of Visible Light 14h 10m
Length of Day
13h 20m
Waning Crescent, 5% of the Moon is Illuminated
May 7
Waning Crescent
May 9
New
May 18
First Quarter
May 25
Full
May 31
Last Quarter

Hourly Weather History & Observations

Time (EDT) Temp. Heat Index Dew Point Humidity Pressure Visibility Wind Dir Wind Speed Gust Speed Precip Events Conditions
12:15 AM 59.0 °F - 53.6 °F 82% 30.03 in 10.0 mi Calm Calm - N/A   Clear
12:35 AM 59.0 °F - 53.6 °F 82% 30.03 in 10.0 mi Calm Calm - N/A   Clear
12:55 AM 55.4 °F - 53.6 °F 94% 30.03 in 10.0 mi NW 3.5 mph - N/A   Clear
1:15 AM 55.4 °F - 53.6 °F 94% 30.03 in 10.0 mi WNW 3.5 mph - N/A   Clear
1:35 AM 55.4 °F - 53.6 °F 94% 30.03 in 10.0 mi Calm Calm - N/A   Clear
1:55 AM 55.4 °F - 53.6 °F 94% 30.02 in 10.0 mi NW 4.6 mph - N/A   Clear
2:15 AM 57.2 °F - 53.6 °F 88% 30.01 in 10.0 mi Calm Calm - N/A   Clear
2:35 AM 55.4 °F - 53.6 °F 94% 30.01 in 10.0 mi NNW 3.5 mph - N/A   Clear
2:55 AM 55.4 °F - 53.6 °F 94% 30.01 in 10.0 mi NW 4.6 mph - N/A   Clear
3:15 AM 55.4 °F - 51.8 °F 88% 30.01 in 10.0 mi Calm Calm - N/A   Clear
3:35 AM 55.4 °F - 51.8 °F 88% 30.01 in 10.0 mi Calm Calm - N/A   Clear
4:15 AM 53.6 °F - 51.8 °F 94% 30.01 in 10.0 mi Calm Calm - N/A   Clear
4:35 AM 51.8 °F - 51.8 °F 100% 30.01 in 10.0 mi Calm Calm - N/A   Clear
4:55 AM 51.8 °F - 51.8 °F 100% 30.01 in 10.0 mi Calm Calm - N/A   Clear
5:15 AM 51.8 °F - 51.8 °F 100% 30.01 in 10.0 mi Calm Calm - N/A   Clear
5:35 AM 50.0 °F - 50.0 °F 100% 30.02 in 10.0 mi Calm Calm - N/A   Clear
5:55 AM 51.8 °F - 50.0 °F 94% 30.02 in 7.0 mi Calm Calm - N/A   Clear
6:15 AM 51.8 °F - 50.0 °F 94% 30.02 in 10.0 mi Calm Calm - N/A   Clear
6:35 AM 50.0 °F - 50.0 °F 100% 30.03 in 10.0 mi Calm Calm - N/A   Clear
6:55 AM 50.0 °F - 50.0 °F 100% 30.04 in 10.0 mi Calm Calm - N/A   Clear
7:15 AM 51.8 °F - 51.8 °F 100% 30.05 in 7.0 mi Calm Calm - N/A   Clear
7:35 AM 53.6 °F - 53.6 °F 100% 30.05 in 10.0 mi Calm Calm - N/A   Clear
7:55 AM 55.4 °F - 53.6 °F 94% 30.06 in 10.0 mi Calm Calm - N/A   Clear
8:15 AM 59.0 °F - 55.4 °F 88% 30.07 in 10.0 mi Calm Calm - N/A   Clear
8:35 AM 62.6 °F - 55.4 °F 77% 30.07 in 10.0 mi Calm Calm - N/A   Clear
8:55 AM 62.6 °F - 55.4 °F 77% 30.07 in 10.0 mi Calm Calm - N/A   Clear
9:15 AM 64.4 °F - 55.4 °F 73% 30.07 in 10.0 mi Calm Calm - N/A   Clear
9:35 AM 66.2 °F - 55.4 °F 68% 30.08 in 10.0 mi WNW 3.5 mph - N/A   Clear
9:55 AM 68.0 °F - 55.4 °F 64% 30.07 in 10.0 mi Calm Calm - N/A   Clear
10:15 AM 69.8 °F - 55.4 °F 60% 30.07 in 10.0 mi WNW 4.6 mph - N/A   Clear
10:35 AM 69.8 °F - 55.4 °F 60% 30.07 in 10.0 mi West 6.9 mph - N/A   Clear
10:55 AM 71.6 °F - 55.4 °F 57% 30.07 in 10.0 mi WSW 10.4 mph - N/A   Clear
11:15 AM 71.6 °F - 57.2 °F 60% 30.07 in 10.0 mi West 10.4 mph - N/A   Scattered Clouds
11:35 AM 71.6 °F - 55.4 °F 57% 30.07 in 10.0 mi WNW 8.1 mph - N/A   Scattered Clouds
11:55 AM 73.4 °F - 55.4 °F 53% 30.07 in 10.0 mi WSW 13.8 mph 18.4 mph N/A   Scattered Clouds
12:15 PM 73.4 °F - 55.4 °F 53% 30.06 in 10.0 mi West 11.5 mph 20.7 mph N/A   Scattered Clouds
12:35 PM 75.2 °F - 55.4 °F 50% 30.05 in 10.0 mi West 10.4 mph 23.0 mph N/A   Clear
12:55 PM 77.0 °F - 55.4 °F 47% 30.05 in 10.0 mi WSW 17.3 mph 28.8 mph N/A   Clear
1:15 PM 77.0 °F - 55.4 °F 47% 30.04 in 10.0 mi WSW 16.1 mph 19.6 mph N/A   Scattered Clouds
1:55 PM 78.8 °F - 55.4 °F 44% 30.03 in 10.0 mi WNW 11.5 mph 19.6 mph N/A   Scattered Clouds
2:15 PM 78.8 °F - 55.4 °F 44% 30.03 in 10.0 mi West 12.7 mph 20.7 mph N/A   Scattered Clouds
2:35 PM 78.8 °F - 55.4 °F 44% 30.02 in 10.0 mi West 13.8 mph 20.7 mph N/A   Scattered Clouds
2:55 PM 78.8 °F - 53.6 °F 42% 30.01 in 10.0 mi West 15.0 mph 20.7 mph N/A   Scattered Clouds
3:15 PM 78.8 °F - 55.4 °F 44% 30.01 in 10.0 mi West 12.7 mph 18.4 mph N/A   Scattered Clouds
3:35 PM 78.8 °F - 57.2 °F 47% 30.00 in 10.0 mi West 11.5 mph 23.0 mph N/A   Scattered Clouds
3:55 PM 80.6 °F 80.3 °F 53.6 °F 39% 29.99 in 10.0 mi West 15.0 mph 21.9 mph N/A   Scattered Clouds
4:15 PM 78.8 °F - 53.6 °F 42% 30.00 in 10.0 mi West 12.7 mph 21.9 mph N/A   Scattered Clouds
4:35 PM 80.6 °F 80.3 °F 53.6 °F 39% 29.99 in 10.0 mi West 11.5 mph 21.9 mph N/A   Scattered Clouds
4:55 PM 78.8 °F - 53.6 °F 42% 29.99 in 10.0 mi West 11.5 mph - N/A   Scattered Clouds
5:15 PM 80.6 °F 80.3 °F 53.6 °F 39% 29.99 in 10.0 mi West 12.7 mph 18.4 mph N/A   Clear
5:35 PM 78.8 °F - 51.8 °F 39% 30.00 in 10.0 mi West 10.4 mph 17.3 mph N/A   Clear
5:55 PM 78.8 °F - 51.8 °F 39% 30.00 in 10.0 mi West 16.1 mph 20.7 mph N/A   Clear
6:15 PM 78.8 °F - 51.8 °F 39% 30.00 in 10.0 mi West 12.7 mph - N/A   Clear
6:35 PM 78.8 °F - 51.8 °F 39% 30.00 in 10.0 mi West 11.5 mph 17.3 mph N/A   Clear
6:55 PM 77.0 °F - 51.8 °F 41% 30.00 in 10.0 mi West 15.0 mph 20.7 mph N/A   Clear
7:15 PM 77.0 °F - 51.8 °F 41% 30.00 in 10.0 mi WSW 11.5 mph - N/A   Clear
7:35 PM 73.4 °F - 51.8 °F 47% 30.01 in 10.0 mi West 6.9 mph - N/A   Clear
7:55 PM 71.6 °F - 51.8 °F 50% 30.01 in 10.0 mi West 6.9 mph - N/A   Clear
8:15 PM 69.8 °F - 53.6 °F 56% 30.02 in 10.0 mi West 6.9 mph - N/A   Clear
8:35 PM 69.8 °F - 53.6 °F 56% 30.03 in 10.0 mi West 3.5 mph - N/A   Clear
8:55 PM 68.0 °F - 53.6 °F 60% 30.04 in 10.0 mi West 3.5 mph - N/A   Clear
9:15 PM 66.2 °F - 53.6 °F 64% 30.04 in 10.0 mi WNW 3.5 mph - N/A   Clear
9:35 PM 66.2 °F - 53.6 °F 64% 30.05 in 10.0 mi West 4.6 mph - N/A   Clear
9:55 PM 66.2 °F - 53.6 °F 64% 30.06 in 10.0 mi West 4.6 mph - N/A   Clear
10:15 PM 64.4 °F - 53.6 °F 68% 30.07 in 10.0 mi West 4.6 mph - N/A   Clear
10:35 PM 64.4 °F - 53.6 °F 68% 30.07 in 10.0 mi WNW 4.6 mph - N/A   Clear
10:55 PM 64.4 °F - 53.6 °F 68% 30.08 in 10.0 mi West 3.5 mph - N/A   Clear
11:15 PM 62.6 °F - 53.6 °F 72% 30.08 in 10.0 mi WNW 3.5 mph - N/A   Clear
11:35 PM 62.6 °F - 53.6 °F 72% 30.08 in 10.0 mi Calm Calm - N/A   Clear
11:55 PM 60.8 °F - 53.6 °F 77% 30.08 in 10.0 mi Calm Calm - N/A   Clear